Regional Weather Roundup
Issued by NWS

Home | Current Version | Previous Version | Text Only | Print | Product List | Glossary On
Versions: 1 2 3 4 5 6 7 8 9 10 11 12 13 14 15 16 17 18 19 20 21 22 23 24 25 26 27 28 29 30 31 32 33 34 35 36 37 38 39 40 41 42 43 44 45 46 47 48 49 50
000
ASUS46 KLOX 190203
RWRCA

SOUTHERN CALIFORNIA WEATHER ROUNDUP
NATIONAL WEATHER SERVICE OXNARD CALIFORNIA
700 PM PDT FRI AUG 18 2017

NOTE: "FAIR" INDICATES FEW OR NO CLOUDS BELOW 12,000 FEET WITH NO
SIGNIFICANT WEATHER AND/OR OBSTRUCTIONS TO VISIBILITY.

  -  STATIONS PRECEEDED BY AN ASTERISK (*) ARE NOT NWS OR FAA
     STATIONS AND ARE NOT SUBJECT TO NWS AND FAA QUALITY CONTROL.

CAZ041-042-087-190300-
LA AND ORANGE COUNTY COASTAL AREAS


CITY           SKY/WX    TMP DP  RH WIND       PRES   REMARKS
L.A. DOWNTOWN  CLEAR     73  62  68 W5        29.92S
L.A. AIRPORT   PTCLDY    68  63  84 W12       29.93S
LONG BEACH     CLEAR     74  61  63 NW13      29.92S

CITY           SKY/WX    TMP DP  RH WIND       PRES   REMARKS
AVALON           N/A     72 N/A N/A MISG        N/A
FULLERTON      PTCLDY    77  61  57 W7        29.91S
*GETTY CENTER    N/A     68  61  77 S7          N/A
HAWTHORNE      CLEAR     70  62  76 W10       29.93S
*LEO CARRILLO    N/A     67  61  81 W13         N/A
*LOS ALAMITOS  CLEAR     73  62  68 SW9       29.92S
*REDONDO BEACH   N/A     69  62  77 W2        29.93R
SANTA ANA      CLEAR     72  62  71 SW7       29.92F
STA MONICA APT PTCLDY    68  63  84 SW9       29.93S
*UCLA            N/A     66  59  77 SW7       29.90S

$$

CAZ547-548-048-190300-
LA COUNTY VALLEYS AND INLAND EMPIRE


CITY           SKY/WX    TMP DP  RH WIND       PRES   REMARKS
BURBANK        CLEAR     75  59  57 S9        29.92S
VAN NUYS       CLEAR     77  60  55 SE8       29.91S

CITY           SKY/WX    TMP DP  RH WIND       PRES   REMARKS
CORONA AIRPORT CLEAR     78  62  57 NW14      29.91S
*CHATSWORTH      N/A     80  57  44 NW2       29.87S
CHINO          CLEAR     80  61  52 SW13      29.93R
MARCH AFB      CLEAR     80  57  45 NW12      29.94S
*NORTHRIDGE      N/A     79  55  44 E5          N/A
ONTARIO        CLEAR     81  59  47 W10       29.92S
*PASADENA        N/A     77  63  61 E2          N/A
POMONA         CLEAR     77  57  50 W12       29.96S
RIVERSIDE      CLEAR     80  60  50 W15       29.92R
SAN BERNARDINO CLEAR     84  57  39 SW13      29.93R HAZE
*SAN RAFAEL HI   N/A     74  57  55 S3          N/A
*SAUGUS          N/A     81  56  41 W7          N/A
*WHITEMAN AP   NOT AVBL
*WHITTIER HILL   N/A     74  58  57 SW7         N/A
*WOODLAND HILL   N/A     84  54  34 NW6         N/A

$$

CAZ054-055-190300-
LA AND SAN BERNARDINO COUNTY MOUNTAINS


CITY           SKY/WX    TMP DP  RH WIND       PRES   REMARKS
*BIG BEAR AIRP CLEAR     70  45  40 W8        30.25R
*CHILAO          N/A     77  41  27 S6G17       N/A
SANDBERG       CLEAR     81  44  27 S9        30.12S
*WARM SPRINGS    N/A     77  53  43 W9          N/A

$$

CAZ028-029-059-060-099-190300-
ANTELOPE VALLEY AND SURROUNDING AREAS


CITY           SKY/WX    TMP DP  RH WIND       PRES   REMARKS
LANCASTER      CLEAR     88  47  24 SW20      29.93R
PALMDALE       CLEAR     90  47  22 SW16      29.94S
*POPPY PARK      N/A     86  47  25 SW15G28     N/A

CITY           SKY/WX    TMP DP  RH WIND       PRES   REMARKS
29 PALMS       CLEAR     97  36  12 S9        29.94S HX  92
BARSTOW/DAGGET CLEAR     99  39  12 E6        29.85S HX  94
BISHOP         MOCLDY    88  37  16 S5        30.01R
CHINA LAKE     CLEAR    100  23   6 SE7       29.88F HX  93
EDWARDS AFB    PTCLDY    94  42  16 SW23      29.88R HX  90
MOJAVE         CLEAR     95  34  11 CALM      29.94S HX  90
NEEDLES        CLEAR    106  31   7 SW12      29.79S HX  99

$$

CAZ039-040-190300-
VENTURA AND SANTA BARBARA COUNTY COAST


CITY           SKY/WX    TMP DP  RH WIND       PRES   REMARKS
CAMARILLO      CLEAR     69  59  70 W9        29.93S
NWS OXNARD       N/A     68  59  72 CALM      29.92S
OXNARD AIRPORT CLEAR     64  60  87 W16       29.93S
*POINT MUGU    PTCLDY    67  60  78 W10       29.94S
SBA APT/GOLETA CLEAR     67  62  84 W5        29.92S
*SANTA BARBARA   N/A     71  58  64 CALM      30.00S
*VENTURA         N/A     67  61  81 W2        29.89S

$$

CAZ044-045-190300-
VENTURA COUNTY VALLEYS


CITY           SKY/WX    TMP DP  RH WIND       PRES   REMARKS
*SIMI VALLEY     N/A     74  59  59 SW2       29.88S
*WESTLAKE VILL   N/A     71  58  64 CALM      29.90R
*OJAI            N/A     78  61  55 W2        29.85R
*FILLMORE        N/A     72  61  67 SW5       29.95R

$$

CAZ053-190300-
VENTURA COUNTY MOUNTAINS


CITY           SKY/WX    TMP DP  RH WIND       PRES   REMARKS
*LOCKWOOD VLY    N/A     79  48  34 MISG        N/A
*ROSE VALLEY     N/A     82  50  32 MISG        N/A

$$

CAZ034-035-036-190300-
CENTRAL COAST AND SANTA YNEZ VALLEY


CITY           SKY/WX    TMP DP  RH WIND       PRES   REMARKS
SAN LUIS OBISP CLEAR     66  58  75 NW14      29.96S
SANTA MARIA    CLEAR     64  58  80 NW10      29.98R HAZE

CITY           SKY/WX    TMP DP  RH WIND       PRES   REMARKS
*LOMPOC        CLEAR     63  58  83 W13       29.97S
*PISMO BEACH     N/A     63  60  89 W3        29.97S
*SANTA YNEZ    FAIR      72  55  56 W9        29.95S

$$

CAZ037-038-051-190300-
SAN LUIS OBISPO COUNTY INTERIOR AND CUYAMA VALLEY


CITY           SKY/WX    TMP DP  RH WIND       PRES   REMARKS
*CUYAMA          N/A     82  57  41 W12       29.82R
PASO ROBLES    CLEAR     74  56  53 S21G28    29.91R

$$

CAZ032-033-061-190300-
SOUTHERN DESERTS


CITY           SKY/WX    TMP DP  RH WIND       PRES   REMARKS
BLYTHE         CLEAR    105  38  10 S9        29.75F HX  99
IMPERIAL       PTCLDY   103  47  15 W3        29.72F HX  99
PALM SPRINGS   CLEAR    100  56  23 NW15      29.79S HX  99
THERMAL        CLEAR    100  48  17 SE6       29.71F HX  96

$$

ELSEWHERE ACROSS THE WESTERN UNITED STATES AND MEXICO


CITY           SKY/WX    TMP DP  RH WIND       PRES   REMARKS
DENVER, CO     PTCLDY    76  42  29 E9        30.13S
GRAND CANYON,  PTCLDY    77  33  20 SW8       30.26S
HONOLULU, HI   MOSUNNY   87  65  47 NE13G21   29.91F
KAHULUI, MAUI  MOSUNNY   87  70  56 NE22G31   29.88F HX  92
LAKE TAHOE, CA MOCLDY    75  44  33 S5        30.25S
LAS VEGAS, NV  PTCLDY   101  35  10 VRB7      29.87S HX  95
MAMMOTH LAKES, CLOUDY    75  30  19 CALM      30.30S
MEXICO CITY, M LGT RAIN  61  55  82 W10       30.34
PHOENIX, AZ    PTCLDY   102  35  10 NW9       29.81S HX  96
PORTLAND, OR   MOSUNNY   77  58  51 N9        30.10S
RENO, NV       MOCLDY    89  43  20 W12       30.07R
SALT LAKE CITY PTCLDY    88  35  15 N9        30.05F
SAN DIEGO, CA  PTCLDY    71  62  73 W9        29.95S
SAN FRANCISCO, MOSUNNY   65  56  72 W18       29.92S
SAN JOSE, CA   CLEAR     73  61  65 W10       29.92S
SEATTLE, WA    PTSUNNY   69  55  60 W3        30.13S
TIJUANA, MEX   CLEAR     70  61  73 W9        29.97S

$$

STATION/POSITION TIME  TEMP    WIND        PRES    VSBY  WAVE
                       AIR SEA DIR/SP/G                  HT/PER
                 (UTC) (F)     (DEG/KT/KT) (MB)    (MI)  (FT/S)
POINT ARGUELLO B NOT AVBL
WEST SANTA BARBA 0150   62 62  300/ 17/ 21 1013.3F         5/16
POINT CONCEPTION NOT AVBL
EAST SANTA BARBA 0150   62 66  250/ 16/ 17 1013.9F         3/ 4
SANTA MONICA BAY 0150      70  270/  8/ 12 1013.3R         3/16



USA.gov is the U.S. government's official web portal to all federal, state and local government web resources and services.